E24CR-1 Weather Reports


Display with metric or nautical units.
time (UTC)temp
F
wind
direction
speed
MPH
gust
MPH
rain 1hr
in
rain 24hr
in
rain mn
in
humidity
%
barometer
mb
20260508062832 92 0 0.0 0.0 0.00 0.00 0.00 56 951.0
20260508061807 91 0 0.0 0.0 0.00 0.00 0.00 60 952.0
20260508060741 88 0 0.0 0.0 0.00 0.00 0.00 62 952.0
20260508055715 90 0 0.0 0.0 0.00 0.00 0.00 59 952.0
20260508054650 91 0 0.0 0.0 0.00 0.00 0.00 59 952.0
20260508053624 89 0 0.0 0.0 0.00 0.00 0.00 62 952.0
20260508052557 88 0 0.0 0.0 0.00 0.00 0.00 64 953.0
20260508051531 84 0 0.0 0.0 0.00 0.00 0.00 69 953.0
20260508050506 89 0 0.0 0.0 0.00 0.00 0.00 62 953.0
20260508045439 89 0 0.0 0.0 0.00 0.00 0.00 61 953.0
20260508044412 90 0 0.0 0.0 0.00 0.00 0.00 60 954.0
20260508043346 88 0 0.0 0.0 0.00 0.00 0.00 66 954.0
20260508042320 86 0 0.0 0.0 0.00 0.00 0.00 67 954.0
20260508041252 85 0 0.0 0.0 0.00 0.00 0.00 68 954.0
20260508040223 90 0 0.0 0.0 0.00 0.00 0.00 62 954.0
20260508035158 90 0 0.0 0.0 0.00 0.00 0.00 62 954.0
20260508034132 89 0 0.0 0.0 0.00 0.00 0.00 65 954.0
20260508033104 86 0 0.0 0.0 0.00 0.00 0.00 66 954.0
20260508032038 87 0 0.0 0.0 0.00 0.00 0.00 68 954.0
20260508031012 85 0 0.0 0.0 0.00 0.00 0.00 76 954.0
20260508025946 82 0 0.0 0.0 0.00 0.00 0.00 80 955.0
20260508024921 82 0 0.0 0.0 0.00 0.00 0.00 82 955.0
20260508023856 82 0 0.0 0.0 0.00 0.00 0.00 87 955.0
20260508022831 80 0 0.0 0.0 0.00 0.00 0.00 91 955.0
20260508021806 80 0 0.0 0.0 0.00 0.00 0.00 90 955.0
20260508020740 80 0 0.0 0.0 0.00 0.00 0.00 93 954.0
20260508015715 81 0 0.0 0.0 0.00 0.00 0.00 92 954.0
20260508014650 80 0 0.0 0.0 0.00 0.00 0.00 99 954.0
20260508013624 79 0 0.0 0.0 0.00 0.00 0.00 99 954.0
20260508012559 79 0 0.0 0.0 0.00 0.00 0.00 97 954.0
20260508011533 79 0 0.0 0.0 0.00 0.00 0.00 99 954.0
20260508010508 78 0 0.0 0.0 0.00 0.00 0.00 99 954.0
20260508005443 76 0 0.0 0.0 0.00 0.00 0.00 99 954.0
20260508004418 76 0 0.0 0.0 0.00 0.00 0.00 99 954.0
20260508003352 76 0 0.0 0.0 0.00 0.00 0.00 99 954.0
20260508002326 76 0 0.0 0.0 0.00 0.00 0.00 99 953.0
20260508001301 76 0 0.0 0.0 0.00 0.00 0.00 99 953.0
20260508000237 77 0 0.0 0.0 0.00 0.00 0.00 99 953.0
20260507235211 75 0 0.0 0.0 0.00 0.00 0.00 99 953.0
20260507234147 74 0 0.0 0.0 0.00 0.00 0.00 99 953.0
20260507233121 76 0 0.0 0.0 0.00 0.00 0.00 99 953.0
20260507232050 76 0 0.0 0.0 0.00 0.00 0.00 99 953.0
20260507231025 77 0 0.0 0.0 0.00 0.00 0.00 99 953.0
20260507230000 75 0 0.0 0.0 0.00 0.00 0.00 99 952.0
20260507224935 76 0 0.0 0.0 0.00 0.00 0.00 99 952.0
20260507223910 78 0 0.0 0.0 0.00 0.00 0.00 87 952.0
20260507222846 79 0 0.0 0.0 0.00 0.00 0.00 83 952.0
20260507221821 79 0 0.0 0.0 0.00 0.00 0.00 84 952.0
20260507220756 79 0 0.0 0.0 0.00 0.00 0.00 85 952.0
20260507215731 78 0 0.0 0.0 0.00 0.00 0.00 87 952.0
20260507214706 79 0 0.0 0.0 0.00 0.00 0.00 83 952.0
20260507213635 81 0 0.0 0.0 0.00 0.00 0.00 78 952.0
20260507212610 81 0 0.0 0.0 0.00 0.00 0.00 77 951.0
20260507211545 81 0 0.0 0.0 0.00 0.00 0.00 79 951.0
20260507210521 80 0 0.0 0.0 0.00 0.00 0.00 81 951.0
20260507205455 80 0 0.0 0.0 0.00 0.00 0.00 83 951.0
20260507204429 79 0 0.0 0.0 0.00 0.00 0.00 84 951.0
20260507203404 78 0 0.0 0.0 0.00 0.00 0.00 88 952.0
20260507202339 77 0 0.0 0.0 0.00 0.00 0.00 93 952.0
20260507201314 76 0 0.0 0.0 0.00 0.00 0.00 96 951.0
20260507200248 76 0 0.0 0.0 0.00 0.00 0.00 96 952.0
20260507195223 75 0 0.0 0.0 0.00 0.00 0.00 99 952.0
20260507194158 75 0 0.0 0.0 0.00 0.00 0.00 99 952.0
20260507193133 75 0 0.0 0.0 0.00 0.00 0.00 99 952.0
20260507192107 75 0 0.0 0.0 0.00 0.00 0.00 99 952.0
20260507191041 75 0 0.0 0.0 0.00 0.00 0.00 99 952.0
20260507190016 75 0 0.0 0.0 0.00 0.00 0.00 98 952.0
20260507184951 77 0 0.0 0.0 0.00 0.00 0.00 92 952.0
20260507183926 79 0 0.0 0.0 0.00 0.00 0.00 84 953.0
20260507182901 80 0 0.0 0.0 0.00 0.00 0.00 74 953.0
20260507181837 77 0 0.0 0.0 0.00 0.00 0.00 84 953.0
20260507180811 75 0 0.0 0.0 0.00 0.00 0.00 89 953.0
20260507175746 75 0 0.0 0.0 0.00 0.00 0.00 92 953.0
20260507174722 76 0 0.0 0.0 0.00 0.00 0.00 96 953.0
20260507173657 76 0 0.0 0.0 0.00 0.00 0.00 90 953.0
20260507172632 76 0 0.0 0.0 0.00 0.00 0.00 99 953.0
20260507171608 75 0 0.0 0.0 0.00 0.00 0.00 99 953.0
20260507170542 81 0 0.0 0.0 0.00 0.00 0.00 76 953.0
20260507165516 81 0 0.0 0.0 0.00 0.00 0.00 75 953.0
20260507164450 81 0 0.0 0.0 0.00 0.00 0.00 76 953.0
20260507163424 82 0 0.0 0.0 0.00 0.00 0.00 75 953.0
20260507162358 81 0 0.0 0.0 0.00 0.00 0.00 77 953.0
20260507161334 80 0 0.0 0.0 0.00 0.00 0.00 82 954.0
20260507160309 79 0 0.0 0.0 0.00 0.00 0.00 83 954.0
20260507155243 78 0 0.0 0.0 0.00 0.00 0.00 85 953.0
20260507154218 75 0 0.0 0.0 0.00 0.00 0.00 99 954.0
20260507153154 78 0 0.0 0.0 0.00 0.00 0.00 91 953.0
20260507152129 79 0 0.0 0.0 0.00 0.00 0.00 86 953.0
20260507151104 78 0 0.0 0.0 0.00 0.00 0.00 94 953.0
20260507150039 80 0 0.0 0.0 0.00 0.00 0.00 86 953.0
20260507145014 79 0 0.0 0.0 0.00 0.00 0.00 90 953.0
20260507143947 77 0 0.0 0.0 0.00 0.00 0.00 98 952.0
20260507142922 76 0 0.0 0.0 0.00 0.00 0.00 99 952.0
20260507141857 76 0 0.0 0.0 0.00 0.00 0.00 99 952.0
20260507140833 74 0 0.0 0.0 0.00 0.00 0.00 99 952.0
20260507135808 74 0 0.0 0.0 0.00 0.00 0.00 99 952.0
20260507134744 77 0 0.0 0.0 0.00 0.00 0.00 83 952.0
20260507133720 78 0 0.0 0.0 0.00 0.00 0.00 68 952.0
20260507132655 81 0 0.0 0.0 0.00 0.00 0.00 62 951.0
20260507131630 85 0 0.0 0.0 0.00 0.00 0.00 59 951.0
20260507130605 89 0 0.0 0.0 0.00 0.00 0.00 55 950.0
20260507125537 88 0 0.0 0.0 0.00 0.00 0.00 55 950.0
20260507124510 88 0 0.0 0.0 0.00 0.00 0.00 54 949.0
20260507123442 89 0 0.0 0.0 0.00 0.00 0.00 52 949.0
20260507122416 90 0 0.0 0.0 0.00 0.00 0.00 50 949.0
20260507121350 90 0 0.0 0.0 0.00 0.00 0.00 50 948.0
20260507120323 90 0 0.0 0.0 0.00 0.00 0.00 50 948.0
20260507115257 92 0 0.0 0.0 0.00 0.00 0.00 48 947.0
20260507114231 93 0 0.0 0.0 0.00 0.00 0.00 46 947.0
20260507113205 93 0 0.0 0.0 0.00 0.00 0.00 44 947.0
20260507112140 95 0 0.0 0.0 0.00 0.00 0.00 42 947.0
20260507111114 93 0 0.0 0.0 0.00 0.00 0.00 44 947.0
20260507110047 92 0 0.0 0.0 0.00 0.00 0.00 45 947.0
20260507105022 91 0 0.0 0.0 0.00 0.00 0.00 46 947.0
20260507103956 92 0 0.0 0.0 0.00 0.00 0.00 47 947.0
20260507102930 93 0 0.0 0.0 0.00 0.00 0.00 44 946.0
20260507101904 93 0 0.0 0.0 0.00 0.00 0.00 44 946.0
20260507100838 93 0 0.0 0.0 0.00 0.00 0.00 47 946.0
20260507095812 91 0 0.0 0.0 0.00 0.00 0.00 47 947.0
20260507094747 90 0 0.0 0.0 0.00 0.00 0.00 50 947.0
20260507093722 90 0 0.0 0.0 0.00 0.00 0.00 48 946.0
20260507092656 92 0 0.0 0.0 0.00 0.00 0.00 47 947.0
20260507091631 93 0 0.0 0.0 0.00 0.00 0.00 42 947.0
20260507090606 94 0 0.0 0.0 0.00 0.00 0.00 38 947.0
20260507085540 94 0 0.0 0.0 0.00 0.00 0.00 38 947.0
20260507084513 95 0 0.0 0.0 0.00 0.00 0.00 38 947.0
20260507083110 95 0 0.0 0.0 0.00 0.00 0.00 37 947.0
20260507081943 97 0 0.0 0.0 0.00 0.00 0.00 35 947.0
20260507080919 99 0 0.0 0.0 0.00 0.00 0.00 32 947.0
20260507075853 103 0 0.0 0.0 0.00 0.00 0.00 30 947.0
20260507074827 102 0 0.0 0.0 0.00 0.00 0.00 31 947.0
20260507073801 100 0 0.0 0.0 0.00 0.00 0.00 32 947.0
20260507072736 100 0 0.0 0.0 0.00 0.00 0.00 33 947.0
20260507071710 102 0 0.0 0.0 0.00 0.00 0.00 30 948.0
20260507070645 103 0 0.0 0.0 0.00 0.00 0.00 30 948.0
20260507065620 102 0 0.0 0.0 0.00 0.00 0.00 30 948.0
20260507064555 104 0 0.0 0.0 0.00 0.00 0.00 30 948.0